This is the latest recevied weather packets stored in our database for station/object KE4EST. If no packets are shown the sender has not sent any weather packets the latest 1 day(s).
| Time | Temp. | Humidity | Pressure | Rain* | Wind** | Luminosity | Snow |
|---|---|---|---|---|---|---|---|
| 1777988809 | 15.56° C | 77% | 1016.8 hPa | 0 mm | 0 m/s | 40 W/m² | - |
| 1777988506 | 15.56° C | 77% | 1017 hPa | 0 mm | 0 m/s | 70 W/m² | - |
| 1777988203 | 15° C | 76% | 1016.8 hPa | 0 mm | 0 m/s | 75 W/m² | - |
| 1777987899 | 14.44° C | 76% | 1016.6 hPa | 0 mm | 0 m/s | 98 W/m² | - |
| 1777987595 | 13.89° C | 78% | 1016.7 hPa | 0 mm | 0 m/s | 129 W/m² | - |
| 1777987293 | 13.33° C | 80% | 1016.6 hPa | 0 mm | 0 m/s | 91 W/m² | - |
| 1777986990 | 13.33° C | 83% | 1016.5 hPa | 0 mm | 0 m/s | 68 W/m² | - |
| 1777986688 | 12.78° C | 84% | 1016.3 hPa | 0 mm | 0 m/s | 64 W/m² | - |
| 1777986386 | 12.22° C | 85% | 1016.7 hPa | 0 mm | 0 m/s | 61 W/m² | - |
| 1777986084 | 12.22° C | 84% | 1016.5 hPa | 0 mm | 0 m/s | 56 W/m² | - |
| 1777985780 | 11.67° C | 84% | 1016.3 hPa | 0 mm | 0 m/s | 57 W/m² | - |
| 1777985477 | 11.67° C | 89% | 1016.3 hPa | 0 mm | 0 m/s | 57 W/m² | - |
| 1777985174 | 11.11° C | 90% | 1016.3 hPa | 0 mm | 0 m/s | 54 W/m² | - |
| 1777984870 | 10.56° C | 92% | 1016.3 hPa | 0 mm | 0 m/s | 50 W/m² | - |
| 1777984566 | 10.56° C | 94% | 1016.5 hPa | 0 mm | 0 m/s | 48 W/m² | - |
| 1777984263 | 10° C | 96% | 1016.3 hPa | 0 mm | 0 m/s | 45 W/m² | - |
| 1777983959 | 10° C | 97% | 1016.1 hPa | 0 mm | 0 m/s | 43 W/m² | - |
| 1777983656 | 9.44° C | 97% | 1016.2 hPa | 0 mm | 0 m/s | 40 W/m² | - |
| 1777983353 | 8.89° C | 97% | 1016.2 hPa | 0 mm | 0 m/s | 35 W/m² | - |
| 1777983050 | 8.89° C | 98% | 1016.2 hPa | 0 mm | 0 m/s | 30 W/m² | - |
| 1777982746 | 8.89° C | 98% | 1016.1 hPa | 0 mm | 0 m/s | 28 W/m² | - |
| 1777982442 | 8.33° C | 98% | 1016 hPa | 0 mm | 0 m/s | 25 W/m² | - |
| 1777982137 | 8.33° C | 98% | 1016.1 hPa | 0 mm | 0 m/s | 23 W/m² | - |
| 1777981834 | 7.78° C | 99% | 1016.2 hPa | 0 mm | 0 m/s | 22 W/m² | - |
| 1777981531 | 7.78° C | 99% | 1016.2 hPa | 0 mm | 0 m/s | 21 W/m² | - |
* Rain latest hour (hover to see other rain measurements)
** Current wind speed in m/s (hover to see current wind gust speed)